Location: Bernay
(48.6766°N, 2.9386°E)
Time: 14:58:34
(UTC+00:00)

Meteor 1-12 Rocket - Visible Passes

Search period start: 19 April 2026 00:00
Search period end: 29 April 2026 00:00
Orbit: 854 x 924 km, 81.2° (Epoch: 19 April)

Date Brightness Start Highest point End Pass type
(mag) Time Alt. Az. Time Alt. Az. Time Alt. Az.
19 Apr 6.1 20:05:20 10° SW 20:10:49 36° WNW 20:16:20 10° N visible
20 Apr 6.3 20:05:07 10° SW 20:10:26 32° WNW 20:15:47 10° N visible
21 Apr 6.6 20:04:55 10° SW 20:10:02 29° WNW 20:15:13 10° N visible
22 Apr 7.9 03:19:09 10° NNE 03:20:55 11° NE 03:22:40 10° ENE visible
22 Apr 6.8 20:04:45 10° WSW 20:09:41 26° WNW 20:14:38 10° N visible
23 Apr 7.8 03:18:06 10° NNE 03:20:37 13° NE 03:23:06 10° ENE visible
23 Apr 7.0 20:04:38 10° WSW 20:09:19 23° WNW 20:14:01 10° N visible
24 Apr 7.6 03:17:14 10° NNE 03:20:18 14° NE 03:23:19 10° E visible
24 Apr 7.2 20:04:33 10° WSW 20:08:58 21° WNW 20:13:23 10° NNW visible
25 Apr 7.5 03:16:29 10° NNE 03:19:59 16° ENE 03:23:26 10° E visible
25 Apr 7.4 20:04:31 10° WSW 20:08:37 19° WNW 20:12:44 10° NNW visible
26 Apr 7.3 03:15:46 10° NNE 03:19:39 18° ENE 03:23:27 10° E visible
26 Apr 7.5 20:04:33 10° W 20:08:17 17° WNW 20:12:02 10° NNW visible
27 Apr 7.2 03:15:06 10° NNE 03:19:18 20° ENE 03:23:25 10° ESE visible
27 Apr 7.7 20:04:40 10° W 20:07:58 15° NW 20:11:16 10° NNW visible
28 Apr 7.1 03:14:28 10° N 03:18:56 22° ENE 03:23:20 10° ESE visible
28 Apr 7.8 20:04:53 10° W 20:07:39 13° NW 20:10:25 10° NNW visible
